When you browse on this site, cookies collect data to enhance your experience and personalize the content and advertising you see.
Visit our Privacy Policy to learn more. By continuing to use the site, you agree to this use of cookies and data.
  • In Österreich
  • Länderverzeichnis
  • Für 7 Tage
  • Wassertemperatur
  • Satellitenkarten
  • Wetterkarte
  • News
  • Widgets
  • user-avatar
    Anmelden

    Stündliche Wetter Brisbane

    Heute, 18 November, Sonntag

    Zeit Temperatur Niederschläge Wind Luftdruck Luftfeuchtigkeit
    00:00 +21°C° 1 mm 3 m/S 760 mmHg 89%
    01:00 +21°C° 1 mm 3 m/S 760 mmHg 89%
    02:00 +21°C° 0.1 mm 4 m/S 760 mmHg 89%
    03:00 +21°C° 0.1 mm 4 m/S 760 mmHg 89%
    04:00 +20°C° 0 mm 3 m/S 760 mmHg 90%
    05:00 +21°C° 0.1 mm 4 m/S 760 mmHg 86%
    06:00 +22°C° 0.1 mm 5 m/S 761 mmHg 82%
    07:00 +22°C° 0.1 mm 5 m/S 761 mmHg 78%
    08:00 +25°C° 0.1 mm 5 m/S 761 mmHg 71%
    09:00 +26°C° 0.1 mm 6 m/S 761 mmHg 64%
    10:00 +27°C° 0 mm 6 m/S 762 mmHg 59%
    11:00 +27°C° 0.2 mm 6 m/S 762 mmHg 58%
    12:00 +27°C° 0.2 mm 6 m/S 761 mmHg 57%
    13:00 +28°C° 0.2 mm 6 m/S 761 mmHg 56%
    14:00 +27°C° 0.1 mm 6 m/S 761 mmHg 56%
    15:00 +27°C° 0.1 mm 6 m/S 761 mmHg 56%
    16:00 +27°C° 0 mm 5 m/S 761 mmHg 55%
    17:00 +24°C° 0 mm 6 m/S 761 mmHg 60%
    18:00 +23°C° 0 mm 6 m/S 761 mmHg 65%
    19:00 +22°C° 0 mm 6 m/S 761 mmHg 71%
    20:00 +21°C° 0 mm 5 m/S 762 mmHg 72%
    21:00 +21°C° 0 mm 5 m/S 762 mmHg 74%
    22:00 +20°C° 0 mm 4 m/S 763 mmHg 79%
    23:00 +20°C° 0 mm 4 m/S 763 mmHg 79%

    Morgen, 19 November, Montag

    Zeit Temperatur Niederschläge Wind Luftdruck Luftfeuchtigkeit
    00:00 +20°C° 0 mm 4 m/S 762 mmHg 79%
    01:00 +20°C° 0 mm 4 m/S 762 mmHg 80%
    02:00 +19°C° 0 mm 3 m/S 762 mmHg 81%
    03:00 +19°C° 0 mm 3 m/S 762 mmHg 81%
    04:00 +18°C° 0 mm 3 m/S 762 mmHg 82%
    05:00 +20°C° 0 mm 3 m/S 762 mmHg 76%
    06:00 +21°C° 0 mm 3 m/S 762 mmHg 69%
    07:00 +22°C° 0 mm 3 m/S 762 mmHg 63%
    08:00 +23°C° 0 mm 4 m/S 762 mmHg 58%
    09:00 +25°C° 0 mm 4 m/S 762 mmHg 53%
    10:00 +26°C° 0 mm 4 m/S 762 mmHg 49%
    11:00 +26°C° 0 mm 4 m/S 762 mmHg 48%
    12:00 +27°C° 0 mm 4 m/S 761 mmHg 47%
    13:00 +27°C° 0 mm 4 m/S 761 mmHg 46%
    14:00 +27°C° 0 mm 4 m/S 761 mmHg 47%
    15:00 +26°C° 0 mm 4 m/S 761 mmHg 49%
    16:00 +26°C° 0 mm 4 m/S 760 mmHg 51%
    17:00 +23°C° 0 mm 4 m/S 761 mmHg 56%
    18:00 +22°C° 0 mm 3 m/S 761 mmHg 61%
    19:00 +21°C° 0 mm 3 m/S 761 mmHg 66%
    20:00 +20°C° 0 mm 3 m/S 761 mmHg 69%
    21:00 +19°C° 0 mm 3 m/S 762 mmHg 71%
    22:00 +19°C° 0 mm 2 m/S 762 mmHg 73%
    23:00 +19°C° 0 mm 2 m/S 761 mmHg 74%

    übermorgen, 20 November, Dienstag

    Zeit Temperatur Niederschläge Wind Luftdruck Luftfeuchtigkeit
    00:00 +19°C° 0 mm 2 m/S 761 mmHg 74%
    01:00 +19°C° 0 mm 1 m/S 761 mmHg 75%
    02:00 +19°C° 0 mm 1 m/S 761 mmHg 76%
    03:00 +19°C° 0 mm 1 m/S 760 mmHg 76%
    04:00 +19°C° 0 mm 1 m/S 760 mmHg 77%
    05:00 +20°C° 0 mm 1 m/S 761 mmHg 72%
    06:00 +19°C° 0 mm 0 m/S 761 mmHg 68%
    07:00 +20°C° 0 mm 0 m/S 761 mmHg 63%
    08:00 +24°C° 0 mm 1 m/S 761 mmHg 56%
    09:00 +26°C° 0 mm 2 m/S 760 mmHg 50%
    10:00 +28°C° 0 mm 2 m/S 760 mmHg 44%
    11:00 +29°C° 0 mm 3 m/S 759 mmHg 42%
    12:00 +30°C° 0 mm 3 m/S 759 mmHg 40%
    13:00 +32°C° 0 mm 4 m/S 758 mmHg 39%
    14:00 +29°C° 0 mm 4 m/S 758 mmHg 43%
    15:00 +28°C° 0 mm 4 m/S 757 mmHg 47%
    16:00 +27°C° 0 mm 4 m/S 757 mmHg 50%
    17:00 +26°C° 0 mm 4 m/S 757 mmHg 56%
    18:00 +25°C° 0 mm 4 m/S 757 mmHg 61%
    19:00 +22°C° 0 mm 4 m/S 757 mmHg 67%
    20:00 +22°C° 0 mm 4 m/S 757 mmHg 69%
    21:00 +21°C° 0 mm 4 m/S 758 mmHg 72%
    22:00 +21°C° 0 mm 4 m/S 758 mmHg 75%
    23:00 +21°C° 0 mm 4 m/S 757 mmHg 76%

    21 November, Mittwoch

    Zeit Temperatur Niederschläge Wind Luftdruck Luftfeuchtigkeit
    00:00 +20°C° 0 mm 4 m/S 757 mmHg 77%
    01:00 +20°C° 0 mm 4 m/S 757 mmHg 79%
    02:00 +20°C° 0 mm 4 m/S 756 mmHg 79%
    03:00 +20°C° 0 mm 4 m/S 756 mmHg 80%
    04:00 +20°C° 0 mm 4 m/S 756 mmHg 80%
    05:00 +21°C° 0 mm 5 m/S 756 mmHg 76%
    06:00 +23°C° 0 mm 5 m/S 756 mmHg 71%
    07:00 +25°C° 0 mm 5 m/S 757 mmHg 66%
    08:00 +28°C° 0 mm 5 m/S 757 mmHg 59%
    09:00 +30°C° 0 mm 5 m/S 756 mmHg 52%
    10:00 +33°C° 0 mm 5 m/S 756 mmHg 44%
    11:00 +34°C° 0 mm 5 m/S 755 mmHg 42%
    12:00 +35°C° 0 mm 6 m/S 754 mmHg 40%
    13:00 +36°C° 0 mm 6 m/S 754 mmHg 38%
    14:00 +35°C° 0.1 mm 6 m/S 753 mmHg 44%
    15:00 +33°C° 0.1 mm 6 m/S 753 mmHg 50%
    16:00 +32°C° 0.1 mm 6 m/S 752 mmHg 56%
    17:00 +29°C° 0.5 mm 5 m/S 752 mmHg 64%
    18:00 +28°C° 0.5 mm 5 m/S 752 mmHg 71%
    19:00 +27°C° 0.5 mm 5 m/S 753 mmHg 79%
    20:00 +26°C° 1.3 mm 5 m/S 753 mmHg 82%
    21:00 +26°C° 1.3 mm 5 m/S 754 mmHg 85%
    22:00 +25°C° 1.3 mm 5 m/S 754 mmHg 88%
    23:00 +24°C° 2.5 mm 6 m/S 754 mmHg 88%

    22 November, Donnerstag

    Zeit Temperatur Niederschläge Wind Luftdruck Luftfeuchtigkeit
    00:00 +23°C° 2.5 mm 6 m/S 754 mmHg 89%
    01:00 +23°C° 2.5 mm 6 m/S 753 mmHg 89%
    02:00 +23°C° 1.3 mm 5 m/S 753 mmHg 89%
    03:00 +22°C° 1.3 mm 5 m/S 753 mmHg 88%
    04:00 +22°C° 1.3 mm 5 m/S 753 mmHg 88%
    05:00 +22°C° 0 mm 5 m/S 753 mmHg 86%
    06:00 +23°C° 0 mm 5 m/S 754 mmHg 84%
    07:00 +25°C° 0 mm 5 m/S 754 mmHg 83%
    08:00 +26°C° 0.1 mm 5 m/S 754 mmHg 79%
    09:00 +27°C° 0.1 mm 6 m/S 754 mmHg 75%
    10:00 +28°C° 0.1 mm 6 m/S 753 mmHg 71%
    11:00 +29°C° 0.6 mm 6 m/S 753 mmHg 69%
    12:00 +30°C° 0.6 mm 6 m/S 752 mmHg 66%
    13:00 +32°C° 0.6 mm 6 m/S 752 mmHg 63%
    14:00 +32°C° 0.7 mm 6 m/S 751 mmHg 60%
    15:00 +32°C° 0.7 mm 6 m/S 751 mmHg 56%
    16:00 +33°C° 0.7 mm 6 m/S 751 mmHg 52%
    17:00 +30°C° 0.1 mm 5 m/S 751 mmHg 51%
    18:00 +29°C° 0.1 mm 4 m/S 752 mmHg 50%
    19:00 +27°C° 0.1 mm 4 m/S 752 mmHg 49%
    20:00 +26°C° 0 mm 4 m/S 753 mmHg 46%
    21:00 +25°C° 0 mm 4 m/S 753 mmHg 43%
    22:00 +22°C° 0 mm 4 m/S 754 mmHg 40%
    23:00 +21°C° 0 mm 4 m/S 754 mmHg 38%

    23 November, Freitag

    Zeit Temperatur Niederschläge Wind Luftdruck Luftfeuchtigkeit
    00:00 +20°C° 0 mm 4 m/S 754 mmHg 37%
    01:00 +19°C° 0 mm 4 m/S 754 mmHg 35%
    02:00 +18°C° 0 mm 4 m/S 755 mmHg 36%
    03:00 +17°C° 0 mm 4 m/S 755 mmHg 37%
    04:00 +17°C° 0 mm 3 m/S 755 mmHg 38%
    05:00 +18°C° 0 mm 4 m/S 756 mmHg 35%
    06:00 +20°C° 0 mm 4 m/S 756 mmHg 33%
    07:00 +21°C° 0 mm 4 m/S 757 mmHg 31%
    08:00 +23°C° 0 mm 4 m/S 756 mmHg 28%
    09:00 +26°C° 0 mm 4 m/S 756 mmHg 26%
    10:00 +28°C° 0 mm 4 m/S 756 mmHg 23%
    11:00 +29°C° 0 mm 4 m/S 755 mmHg 21%
    12:00 +30°C° 0 mm 4 m/S 755 mmHg 20%
    13:00 +32°C° 0 mm 4 m/S 754 mmHg 18%
    14:00 +32°C° 0 mm 4 m/S 754 mmHg 19%
    15:00 +32°C° 0 mm 5 m/S 753 mmHg 19%
    16:00 +32°C° 0 mm 5 m/S 753 mmHg 19%
    17:00 +29°C° 0 mm 4 m/S 753 mmHg 23%
    18:00 +27°C° 0 mm 4 m/S 754 mmHg 28%
    19:00 +25°C° 0 mm 3 m/S 754 mmHg 32%
    20:00 +24°C° 0 mm 3 m/S 755 mmHg 34%
    21:00 +23°C° 0 mm 2 m/S 755 mmHg 36%
    22:00 +21°C° 0 mm 2 m/S 755 mmHg 38%
    23:00 +20°C° 0 mm 2 m/S 755 mmHg 38%
    Mehr zeigen